Regional Weather Roundup
Issued by NWS Little Rock, AR

Home | Current Version | Previous Version | Graphics & Text | Print | Product List | Glossary On
Versions: 1 2 3 4 5 6 7 8 9 10 11 12 13 14 15 16 17 18 19 20 21 22 23 24 25 26 27
000
ASUS44 KLZK 222305
RWRLZK

WEATHER ROUNDUP FOR ARKANSAS
NATIONAL WEATHER SERVICE LITTLE ROCK AR
600 PM CDT MON AUG 22 2016

NOTE: "FAIR" INDICATES FEW OR NO CLOUDS BELOW 12,000 FEET WITH NO
SIGNIFICANT WEATHER AND/OR OBSTRUCTIONS TO VISIBILITY.

ARZ001-003-010-029-230000-
NORTHWEST ARKANSAS

CITY           SKY/WX    TMP DP  RH WIND       PRES   REMARKS
FAYETTEVILLE   SUNNY     79  64  60 SE12      30.11S
FORT SMITH     PTSUNNY   79  66  64 SE5       30.08F
HARRISON       MOSUNNY   79  63  57 SE10      30.13S
BENTONVILLE    MOSUNNY   82  59  44 SW8       30.11S
ROGERS         PTSUNNY   82  64  54 SE13      30.11S
SILOAM SPGS    SUNNY     82  59  44 S8        30.11S
HIGHFILL       MOSUNNY   83  63  50 S12       30.10S
SPRINGDALE     MOSUNNY   81  63  54 S12       30.13S
$$

ARZ004-005-016-230000-
NORTH CENTRAL ARKANSAS

CITY           SKY/WX    TMP DP  RH WIND       PRES   REMARKS
BATESVILLE     MOSUNNY   82  64  54 SE6       30.12S
FLIPPIN        MOSUNNY   81  61  50 SE6       30.10S
MTN HOME       MOSUNNY   79  63  57 S6        30.12F
$$

ARZ040-041-230000-
WEST CENTRAL ARKANSAS

CITY           SKY/WX    TMP DP  RH WIND       PRES   REMARKS
MENA           CLOUDY    79  73  83 E6        30.12F
MOUNT IDA      CLOUDY    79  70  74 SE3       30.10S
$$

ARZ009-017-025-026-028-230000-
NORTHEAST ARKANSAS

CITY           SKY/WX    TMP DP  RH WIND       PRES   REMARKS
CORNING          N/A     81  64  57 E3        30.13F
JONESBORO      SUNNY     83  60  45 SE3       30.12S
NEWPORT        SUNNY     83  67  58 SE6       30.12S HX  85
WALNUT RIDGE   SUNNY     82  61  47 E6        30.11F
BLYTHEVILLE    SUNNY     82  63  52 SE3       30.13S
$$

ARZ022-023-033-042-044-230000-
CENTRAL ARKANSAS

CITY           SKY/WX    TMP DP  RH WIND       PRES   REMARKS
LITTLE ROCK    PTSUNNY   85  70  60 SE6       30.11R HX  89
N LITTLE ROCK    N/A     81  71  71 E6        30.09S HX  85
JACKSONVILLE   MOSUNNY   84  73  68 E5        30.10S HX  90
SEARCY         MOSUNNY   85  70  60 E6        30.13S HX  89
HOT SPRINGS    PTSUNNY   81  70  69 SE3       30.12S
RUSSELLVILLE   CLOUDY    80  67  64 SE3       30.10F
$$

ARZ036-230000-
EAST ARKANSAS

CITY           SKY/WX    TMP DP  RH WIND       PRES   REMARKS
WEST MEMPHIS   SUNNY     83  69  62 S6        30.10S HX  86
$$

ARZ050-053-066-070-073-230000-
SOUTHWEST ARKANSAS

CITY           SKY/WX    TMP DP  RH WIND       PRES   REMARKS
ARKADELPHIA    MOCLDY    80  74  81 S5        30.11S HX  85
CAMDEN         CLOUDY    77  72  83 NE3       30.11F
TEXARKANA      CLOUDY    77  75  93 E3        30.09F
EL DORADO      CLOUDY    80  76  87 NE6       30.11S HX  86
DE QUEEN       CLOUDY    80  75  84 VRB5      30.06F HX  85
$$

ARZ056-057-069-230000-
SOUTHEAST ARKANSAS

CITY           SKY/WX    TMP DP  RH WIND       PRES   REMARKS
PINE BLUFF     CLOUDY    81  72  74 SE8       30.12R HX  85
STUTTGART      MOSUNNY   82  70  65 SE5       30.12R HX  86
MONTICELLO     CLOUDY    83  74  74 NE3       30.11F HX  89

$$






USA.gov is the U.S. government's official web portal to all federal, state and local government web resources and services.